#timestamp,LO_Frequency,Hit,StdDev 
1606518015.9,286046992.3,N
1606518065.8,286046992.9,E
1606518075.7,286046995.0,N
1606518095.5,286046999.9,P
1606518115.4,286047002.9,N
1606518135.2,286047001.6,N
1606518155.0,286047002.6,N
1606518155.9,286047002.6,N
1606518175.8,286047005.8,N
1606518195.6,286047001.8,N
1606518215.4,286047006.3,N
1606518235.3,286047008.2,N
1606518255.1,286047013.7,Y
1606518275.9,286047012.8,P
1606518295.7,286047011.4,N
1606518315.5,286047010.9,N
1606518335.4,286047012.1,Y
1606518355.2,286046999.7,P
1606518375.0,286047000.9,N
1606518376.0,286047000.9,N
1606518395.8,286047000.4,N
1606518415.6,286047000.1,N
1606518435.5,286047002.5,N
1606518455.3,286046998.4,N
1606518475.1,286046997.7,N
1606518495.9,286046998.0,N
1606518515.7,286046993.7,N
1606518535.6,286046993.6,N
1606518555.4,286046991.4,N
1606518575.2,286046994.7,N
1606518595.1,286046997.6,N
1606518596.0,286046997.6,N
1606518615.8,286046995.4,N
1606518635.6,286046993.3,N
1606518655.5,286046990.4,N
1606518675.3,286046994.8,N
1606518695.2,286046992.2,N
1606518715.9,286046994.9,N
1606518735.7,286046991.9,N
1606518755.6,286046991.8,N
1606518775.4,286046990.3,N
1606518795.2,286046990.5,N
1606518815.1,286046989.7,N
1606518816.0,286046989.7,N
1606518835.8,286046986.1,Y
1606518855.7,286046984.8,P
1606518875.5,286046987.1,N
1606518895.3,286046989.4,N
1606518915.2,286046990.5,N
1606518935.0,286046990.7,N
1606518935.9,286046990.7,N
1606518955.8,286046990.1,Y
1606518975.6,286047000.2,P
1606518995.4,286047003.7,N
1606519015.3,286047006.0,N
1606519035.1,286047008.9,N
1606519055.8,286047007.3,N
1606519075.7,286047007.1,N
1606519095.5,286047005.8,N
1606519115.4,286047006.0,N
1606519135.2,286047001.3,N
1606519155.0,286047006.0,N
1606519155.9,286047006.0,N
1606519175.8,286047004.8,N
1606519195.6,286047005.2,N
1606519215.4,286047005.1,N
1606519235.3,286047004.0,N
1606519255.1,286046999.9,N
1606519275.9,286046998.7,N
1606519295.7,286047000.6,N
1606519315.5,286047000.6,N
1606519335.4,286046998.1,N
1606519355.2,286046996.5,N
1606519375.0,286046998.2,N
1606519375.9,286046998.2,N
1606519395.8,286046998.5,N
1606519415.6,286047002.1,N
1606519435.5,286047002.2,N
1606519455.3,286047002.6,N
1606519475.1,286047001.2,N
1606519495.9,286046998.5,N
1606519515.7,286047004.5,N
1606519535.6,286047010.3,Y
1606519555.4,286047008.6,P
1606519575.2,286047007.9,N
1606519595.1,286047008.3,P
1606519596.0,286047008.3,Y
1606519615.8,286047000.4,P
1606519635.6,286047002.6,N
1606519655.5,286047004.3,N
1606519675.3,286047001.6,N
1606519695.2,286047002.2,N
1606519715.9,286047004.1,N
1606519735.7,286047000.6,N
1606519755.6,286046996.7,N
1606519775.4,286046998.0,N
1606519795.3,286046995.4,N
1606519815.1,286046997.1,N
1606519816.0,286046997.1,N
1606519835.8,286047001.0,N
1606519855.7,286047009.1,N
1606519875.5,286047007.2,N
1606519895.4,286047008.7,N
1606519915.2,286047007.7,N
1606519935.0,286047009.3,N
1606519935.9,286047009.3,N
1606519955.8,286047011.3,N
1606519975.6,286047009.4,N
1606519995.4,286047009.5,N
1606520015.3,286047009.8,N
1606520035.1,286047011.7,N
1606520055.9,286047011.1,N
1606520075.7,286047009.9,N
1606520095.6,286047008.5,N
1606520115.4,286047007.1,N
1606520135.2,286047002.4,N
1606520155.1,286047003.7,N
1606520156.0,286047003.7,N
1606520175.8,286047007.4,N
1606520195.7,286047007.2,N
1606520215.5,286047004.6,N
1606520235.3,286047007.1,N
1606520255.2,286047008.4,N
1606520275.0,286047008.2,N
1606520275.9,286047008.2,N
1606520295.8,286047009.8,N
1606520315.6,286047015.6,Y
1606520335.4,286047004.9,P
1606520355.3,286047003.1,P
1606520375.1,286047001.3,N
1606520395.9,286047003.9,N
1606520415.7,286047001.5,N
1606520435.5,286047000.9,N
1606520455.4,286047002.4,N
1606520475.2,286047004.9,N
1606520495.0,286047003.8,N
1606520496.0,286047003.8,N
1606520515.8,286047000.4,N
1606520535.6,286046999.5,N
1606520555.5,286046997.5,N
1606520575.3,286046995.1,N
1606520595.1,286047001.1,N
1606520615.9,286046999.7,N
1606520635.7,286047003.5,N
1606520655.6,286047002.1,N
1606520675.4,286047005.4,N
1606520695.2,286047006.0,N
1606520715.1,286047007.0,N
1606520716.0,286047007.0,N
1606520735.8,286047007.2,N
1606520755.7,286047007.5,N
1606520775.5,286047009.0,N
1606520795.3,286047004.3,N
1606520815.2,286047003.3,N
1606520835.0,286047004.3,N
1606520835.9,286047004.3,N
1606520855.8,286047002.5,N
1606520875.6,286046999.2,N
1606520895.4,286046996.6,N
1606520915.3,286047000.4,N
1606520935.1,286047001.5,N
1606520955.8,286047002.5,N
1606520975.7,286047003.0,N
1606520995.5,286047004.9,N
1606521015.4,286047003.0,N
1606521035.2,286047002.5,N
1606521055.0,286047001.4,N
1606521055.9,286047001.4,N
1606521075.8,286047003.3,N
1606521095.6,286047004.4,N
1606521115.4,286047004.8,N
1606521135.3,286047005.7,N
1606521155.1,286047003.4,N
1606521175.9,286047005.9,N
1606521195.7,286047002.8,N
1606521215.5,286047001.9,N
1606521235.4,286046998.8,N
1606521255.2,286046999.6,N
1606521275.0,286046997.9,N
1606521276.0,286046997.9,N
1606521295.8,286046994.1,N
1606521315.6,286046995.8,N
1606521335.5,286046994.5,N
1606521355.3,286046988.5,Y
1606521375.1,286046994.3,P
1606521395.9,286046996.2,N
1606521415.7,286046995.7,N
1606521435.6,286046993.8,N
1606521455.4,286046991.7,Y
1606521475.2,286046995.8,P
1606521495.1,286046998.0,P
1606521496.0,286046998.0,N
1606521515.8,286046996.0,Y
1606521535.7,286046998.9,P
1606521555.5,286047003.1,P
1606521575.3,286047001.4,N
1606521595.2,286046999.7,N
